Location: Unspecified
(0.0000°N, 0.0000°E)
Time: 00:05:44
(UTC+00:00)

CORVUS BC2 - Pass Details

Date: 14 February 2026
Orbit: 540 x 560 km, 97.4° (Epoch: 7 March)

Event Time Altitude Azimuth Distance (km) Brightness Sun altitude
Rises 04:38:58 0° 178° (S) 2,747 ? -23.2°
Reaches altitude 10° 04:41:09 10° 184° (S) 1,850 ? -22.6°
Enters shadow 04:43:41 34° 207° (SSW) 936 ? -22.0°
